Location: Dulzura
(32.6442°N, 116.7814°W)
Time: 20:33:13
(UTC+00:00)

Cosmos 1151 Rocket - Pass Details

Date: 07 December 2021
Orbit: 592 x 616 km, 82.5° (Epoch: 16 January)

Event Time Altitude Azimuth Distance (km) Brightness Sun altitude
Exits shadow 12:23:45 35° 36° (NE) 998 4.2 -27.2°
Maximum altitude 12:25:01 45° 81° (E) 832 4.0 -27.0°
Drops below altitude 10° 12:29:11 10° 155° (SSE) 1,957 6.0 -26.1°
Sets 12:31:28 0° 161° (SSE) 2,853 6.9 -25.6°
